Duncan, OK

6:14 PM CST on December 07, 2019 (GMT -0600)
Halliburton

Weather History for KDUC - September, 2019

Change the Weather History Date:

Friday, September 20, 2019

  Actual Average (KLAW) Record (KLAW)
Temperature  
Mean Temperature 76 °F 73 °F  
Max Temperature 83 °F 86 °F 104 °F (1953)
Min Temperature 68 °F 61 °F 44 °F (1971)
Degree Days  
Heating Degree Days 0 0  
Month to date heating degree days 0  
Since 1 July heating degree days 0  
Cooling Degree Days 10 9  
Month to date cooling degree days 240  
Year to date cooling degree days 2156  
Growing Degree Days 26 (Base 50)    
Moisture  
Dew Point 71 °F    
Average Humidity 90    
Maximum Humidity 98    
Minimum Humidity 74    
Precipitation  
Precipitation 1.16 in 0.09 in 1.76 in (1993)
Month to date precipitation 2.36  
Year to date precipitation 23.04  
Sea Level Pressure  
Sea Level Pressure 29.96 in    
Wind  
Wind Speed 7 mph (SE)    
Max Wind Speed 23 mph    
Max Gust Speed 29 mph    
Visibility 10 miles    
Events Rain , Thunderstorm    
T = Trace of Precipitation, MM = Missing Value Source: NWS Daily Summary

Daily Weather History Graph

Daily Weather History Graph

Search for Another Location

Airport or City:

Astronomy

Sep. 20, 2019 Rise Set
Actual Time 7:18 AM CDT 7:31 PM CDT
Civil Twilight 6:53 AM CDT 7:56 PM CDT
Nautical Twilight 6:23 AM CDT 8:26 PM CDT
Astronomical Twilight 5:54 AM CDT 8:55 PM CDT
Moon 11:37 PM CDT (9/20) 1:10 PM CDT (9/20)
Length of Visible Light 13h 03m
Length of Day
12h 13m
Waning Gibbous, 65% of the Moon is Illuminated
Sep 20
Waning Gibbous
Sep 21
Last Quarter
Sep 28
New
Oct 5
First Quarter
Oct 13
Full

Hourly Weather History & Observations

Time (CDT) Temp. Heat Index Dew Point Humidity Pressure Visibility Wind Dir Wind Speed Gust Speed Precip Events Conditions
12:15 AM 73.0 °F - 68.9 °F 87% 29.95 in 10.0 mi WNW 3.5 mph - N/A   Mostly Cloudy
12:35 AM 72.5 °F - 69.1 °F 89% 29.95 in 10.0 mi Calm Calm - N/A   Overcast
12:55 AM 72.3 °F - 69.1 °F 89% 29.95 in 10.0 mi West 3.5 mph - N/A   Overcast
1:15 AM 73.0 °F - 69.3 °F 88% 29.95 in 10.0 mi Calm Calm - N/A   Overcast
1:35 AM 73.0 °F - 69.8 °F 90% 29.95 in 10.0 mi Calm Calm - N/A   Light Drizzle
1:55 AM 72.3 °F - 70.7 °F 95% 29.95 in 10.0 mi ESE 9.2 mph - N/A   Overcast
2:15 AM 71.6 °F - 70.3 °F 96% 29.95 in 10.0 mi ESE 5.8 mph - N/A   Overcast
2:35 AM 71.8 °F - 70.2 °F 95% 29.94 in 10.0 mi ESE 4.6 mph - N/A   Light Drizzle
2:55 AM 71.6 °F - 70.2 °F 95% 29.93 in 10.0 mi ESE 5.8 mph - N/A   Overcast
3:15 AM 71.4 °F - 70.3 °F 96% 29.92 in 10.0 mi ESE 8.1 mph - N/A   Overcast
3:35 AM 71.4 °F - 70.3 °F 96% 29.91 in 10.0 mi ESE 6.9 mph - N/A   Overcast
3:55 AM 71.4 °F - 69.8 °F 95% 29.91 in 10.0 mi SE 6.9 mph - N/A   Overcast
4:15 AM 71.1 °F - 69.1 °F 93% 29.91 in 10.0 mi SE 6.9 mph - N/A   Overcast
4:35 AM 70.3 °F - 69.1 °F 96% 29.92 in 10.0 mi SSE 5.8 mph - N/A   Mostly Cloudy
4:55 AM 70.5 °F - 68.7 °F 94% 29.92 in 10.0 mi SE 5.8 mph - N/A   Scattered Clouds
5:15 AM 69.8 °F - 68.4 °F 95% 29.93 in 10.0 mi SSE 5.8 mph - N/A   Scattered Clouds
5:35 AM 69.6 °F - 68.5 °F 96% 29.93 in 10.0 mi SE 4.6 mph - N/A   Mostly Cloudy
5:55 AM 69.4 °F - 68.4 °F 96% 29.94 in 10.0 mi ESE 4.6 mph - N/A   Mostly Cloudy
6:15 AM 69.3 °F - 68.4 °F 97% 29.94 in 10.0 mi ESE 3.5 mph - N/A   Scattered Clouds
6:35 AM 69.1 °F - 68.4 °F 98% 29.95 in 10.0 mi ESE 5.8 mph - N/A   Scattered Clouds
6:55 AM 69.4 °F - 68.9 °F 98% 29.95 in 10.0 mi ESE 5.8 mph - N/A   Mostly Cloudy
7:15 AM 69.6 °F - 68.9 °F 98% 29.95 in 10.0 mi ESE 3.5 mph - N/A   Overcast
7:55 AM 70.2 °F - 69.4 °F 98% 29.95 in 10.0 mi East 5.8 mph - N/A   Overcast
8:15 AM 70.7 °F - 69.8 °F 97% 29.95 in 10.0 mi ESE 6.9 mph - N/A   Overcast
8:35 AM 71.1 °F - 70.0 °F 96% 29.96 in 10.0 mi East 5.8 mph - N/A   Overcast
8:55 AM 71.8 °F - 70.3 °F 95% 29.96 in 10.0 mi East 5.8 mph - N/A   Overcast
9:15 AM 72.0 °F - 70.5 °F 95% 29.97 in 10.0 mi East 5.8 mph - N/A   Overcast
9:35 AM 72.1 °F - 70.7 °F 95% 29.98 in 10.0 mi East 5.8 mph - N/A   Overcast
9:55 AM 72.5 °F - 70.9 °F 95% 29.98 in 10.0 mi East 5.8 mph - N/A   Overcast
10:15 AM 74.1 °F - 72.0 °F 93% 29.99 in 10.0 mi East 5.8 mph - N/A   Overcast
10:35 AM 74.7 °F - 72.0 °F 91% 30.00 in 10.0 mi East 5.8 mph - N/A   Overcast
10:55 AM 75.2 °F - 72.3 °F 91% 30.00 in 10.0 mi East 4.6 mph - N/A   Overcast
11:15 AM 76.1 °F - 72.7 °F 89% 30.00 in 10.0 mi ESE 5.8 mph - N/A   Overcast
11:35 AM 77.4 °F - 73.4 °F 88% 30.00 in 10.0 mi Calm Calm - N/A   Overcast
11:55 AM 79.2 °F - 73.4 °F 82% 29.99 in 10.0 mi SSE 5.8 mph - N/A   Overcast
12:10 PM 80.2 °F 84.7 °F 73.4 °F 80% 29.98 in - SSW 4.6 mph - N/A   Overcast
12:35 PM 81.3 °F 86.8 °F 73.8 °F 78% 29.96 in 10.0 mi South 6.9 mph - N/A   Mostly Cloudy
12:55 PM 82.9 °F 89.4 °F 73.8 °F 74% 29.95 in 10.0 mi SSW 10.4 mph - N/A Thunderstorm Mostly Cloudy
1:15 PM 81.5 °F 86.7 °F 73.4 °F 76% 29.94 in 10.0 mi South 5.8 mph - N/A   Mostly Cloudy
1:30 PM 82.9 °F 89.4 °F 73.8 °F 74% 29.95 in 10.0 mi South 12.7 mph - N/A Thunderstorm Overcast
1:55 PM 83.1 °F 89.8 °F 74.1 °F 74% 29.95 in 10.0 mi SSW 11.5 mph - N/A   Overcast
2:15 PM 83.3 °F 90.2 °F 74.3 °F 74% 29.94 in 10.0 mi South 8.1 mph - N/A Thunderstorm Thunderstorm
2:35 PM 82.2 °F 88.3 °F 74.1 °F 76% 29.93 in 10.0 mi South 10.4 mph - N/A   Overcast
2:55 PM 80.6 °F 85.5 °F 73.9 °F 80% 29.93 in 10.0 mi SSE 11.5 mph - N/A   Overcast
3:15 PM 79.5 °F - 73.2 °F 81% 29.92 in 10.0 mi SSE 9.2 mph - N/A   Mostly Cloudy
3:35 PM 79.2 °F - 72.5 °F 80% 29.93 in 10.0 mi SSE 8.1 mph - N/A   Mostly Cloudy
3:55 PM 80.2 °F 83.9 °F 71.4 °F 74% 29.93 in 10.0 mi SSE 6.9 mph - N/A   Overcast
4:15 PM 78.6 °F - 73.0 °F 83% 29.94 in 10.0 mi ESE 5.8 mph - 0.01 in Rain Light Rain
4:35 PM 79.3 °F - 74.5 °F 85% 29.94 in 10.0 mi SSE 9.2 mph - 0.01 in Thunderstorm Overcast
4:55 PM 78.8 °F - 72.0 °F 79% 29.95 in 10.0 mi SE 12.7 mph - 0.01 in   Mostly Cloudy
5:15 PM 77.4 °F - 71.2 °F 81% 29.97 in 10.0 mi SE 15.0 mph - N/A   Overcast
5:35 PM 76.3 °F - 71.8 °F 86% 29.97 in 10.0 mi SE 13.8 mph - N/A   Overcast
5:55 PM 74.8 °F - 71.8 °F 90% 29.95 in 7.0 mi SE 12.7 mph - 0.01 in Rain Light Rain
6:15 PM 73.6 °F - 72.1 °F 95% 29.97 in 10.0 mi East 10.4 mph - 0.03 in Rain Light Rain
6:35 PM 72.9 °F - 71.8 °F 96% 29.98 in 7.0 mi ESE 15.0 mph 19.6 mph 0.06 in Rain , Thunderstorm Light Thunderstorms and Rain
6:55 PM 72.3 °F - 71.4 °F 97% 29.99 in 5.0 mi SE 12.7 mph - 0.11 in Rain Light Rain
7:15 PM 72.1 °F - 71.4 °F 98% 29.98 in 3.0 mi SE 17.3 mph 21.9 mph 0.11 in Rain Rain
7:35 PM 71.8 °F - 70.9 °F 97% 29.98 in 7.0 mi SE 23.0 mph 28.8 mph 0.17 in Rain Light Rain
7:55 PM 71.6 °F - 70.7 °F 97% 29.97 in 10.0 mi ESE 23.0 mph 27.6 mph 0.19 in Rain Light Rain
8:15 PM 71.1 °F - 69.8 °F 96% 29.96 in 10.0 mi ESE 21.9 mph 25.3 mph 0.01 in Rain Light Rain
8:35 PM 70.5 °F - 68.9 °F 95% 29.95 in 10.0 mi ESE 18.4 mph 25.3 mph 0.01 in   Scattered Clouds
8:55 PM 70.3 °F - 68.4 °F 93% 29.96 in 10.0 mi ESE 16.1 mph 21.9 mph 0.01 in   Scattered Clouds
9:15 PM 70.5 °F - 68.0 °F 92% 29.97 in 10.0 mi ESE 12.7 mph - N/A   Mostly Cloudy
9:55 PM 70.5 °F - 67.8 °F 91% 30.01 in 10.0 mi SE 10.4 mph - N/A Rain Rain
10:35 PM 70.3 °F - 67.8 °F 92% 30.02 in 10.0 mi SSE 5.8 mph - 0.04 in Rain Light Rain
10:55 PM 70.9 °F - 68.0 °F 91% 30.07 in 10.0 mi SSE 8.1 mph 20.7 mph 0.06 in Rain Light Rain
11:15 PM 69.1 °F - 67.5 °F 95% 30.08 in 5.0 mi West 12.7 mph 23.0 mph 0.15 in Rain , Thunderstorm Heavy Thunderstorms and Rain
11:35 PM 68.5 °F - 67.6 °F 97% 30.07 in 5.0 mi WNW 12.7 mph 19.6 mph 0.43 in Rain , Thunderstorm Thunderstorms and Rain
11:55 PM 68.7 °F - 68.2 °F 98% 30.08 in 5.0 mi West 13.8 mph - 0.77 in Rain , Thunderstorm Heavy Thunderstorms and Rain